[[{"header":{"parameterUnit":"m.s-1","parameterCategory":1,"la1":30.2992,"la2":30.254,"lo1":-89.0895,"lo2":-89.0443,"dy":0.0025,"dx":0.0025,"nx":19,"ny":19,"refTime":"2026-05-09T21:00:00:Z","depth":0,"parameterNumber":2,"parameterNumberName":"U-component_of_WINDS"},"data":[0,0,0,-0.8466,-0.8467,-0.8497,-0.8497,-0.8531,-0.8532,0,0,0,0,0,0,0,0,0,0,0,-0.8455,-0.8455,-0.8466,-0.8467,-0.8497,-0.8497,-0.8531,-0.8532,0,0,0,0,0,0,0,0,0,0,0,-0.8455,-0.8455,-0.8455,-0.8467,-0.8497,-0.8497,-0.8531,-0.851,0,0,0,0,0,0,0,0,0,0,-0.8482,-0.8468,-0.8455,-0.8455,-0.8467,-0.8497,-0.8497,-0.8509,-0.8511,-0.8516,0,-0.8519,0,-0.8526,-0.8534,-0.8534,0,0,0,-0.8469,-0.8466,-0.8477,-0.8455,-0.8467,-0.8497,-0.8484,-0.851,-0.8513,-0.8519,-0.8519,-0.8521,-0.8526,-0.8534,-0.8534,-0.8552,-0.8552,0,0,-0.8467,-0.8459,-0.8475,-0.8478,-0.8473,-0.8483,-0.8485,-0.8512,-0.8512,-0.852,-0.8522,-0.8527,-0.8534,-0.8534,-0.8552,-0.8552,0,0,0,-0.8461,-0.8458,-0.8467,-0.8477,-0.8483,-0.8484,-0.8486,-0.8511,-0.8515,-0.8522,-0.8527,-0.8534,-0.8534,-0.8552,-0.8552,-0.8543,0,0,0,-0.846,-0.8454,-0.8467,-0.8462,-0.8482,-0.8497,-0.8484,-0.8513,-0.8516,-0.8527,-0.8534,-0.8535,-0.8552,-0.8552,-0.8543,-0.854,0,0,0,-0.8454,-0.8453,-0.8457,-0.8461,-0.8474,-0.8497,-0.8503,-0.8514,-0.8519,-0.8534,-0.8535,-0.8552,-0.8552,-0.8544,-0.8541,-0.8542,0,0,0,-0.8444,-0.8448,-0.8456,-0.8463,-0.8473,-0.8491,-0.8502,-0.8516,-0.8527,-0.8534,-0.8552,-0.8552,-0.8544,-0.8541,-0.8543,-0.8542,-0.8541,0,0,-0.8445,-0.8448,-0.8453,-0.8461,-0.8475,-0.8487,-0.85,-0.8518,-0.8528,-0.8543,-0.8544,-0.8543,-0.8541,-0.8543,-0.8539,-0.8538,0,0,0,-0.845,-0.8453,-0.8459,-0.8469,-0.8483,-0.8494,-0.8512,-0.8518,-0.8532,-0.8534,-0.8545,-0.8544,-0.8545,-0.8545,-0.8544,-0.8546,-0.8552,-0.8552,-0.8552,-0.8438,-0.845,-0.8458,-0.8473,-0.8482,-0.85,-0.8509,-0.8521,-0.853,-0.8532,-0.8537,-0.8534,-0.8533,-0.8533,-0.8535,-0.8538,-0.8538,-0.8538,-0.8538,-0.844,-0.8446,-0.8457,-0.847,-0.8482,-0.8492,-0.8509,-0.8515,-0.8526,-0.8531,-0.8533,-0.8537,-0.8532,-0.8534,-0.8537,-0.8537,-0.8537,-0.8537,-0.8538,-0.8433,-0.8438,-0.8446,-0.8462,-0.8472,-0.8487,-0.8498,-0.8509,-0.8519,-0.8521,-0.8527,-0.8527,-0.8528,-0.8523,-0.8523,-0.8523,-0.8523,-0.8523,-0.8523,-0.8424,-0.8433,-0.844,-0.8455,-0.8463,-0.8474,-0.8492,-0.85,-0.8511,-0.8518,-0.8518,-0.8527,-0.8529,-0.8529,-0.8523,-0.8523,-0.8523,-0.8523,-0.8523,-0.8421,-0.8423,-0.8434,-0.8442,-0.846,-0.847,-0.8483,-0.8498,-0.8507,-0.8511,-0.852,-0.8519,-0.8524,-0.8524,-0.8525,-0.8517,-0.8517,-0.8517,-0.8517,-0.8415,-0.8418,-0.8432,-0.8443,-0.8456,-0.8469,-0.8481,-0.8495,-0.851,-0.8516,-0.8518,-0.852,-0.852,-0.8524,-0.8525,-0.8525,-0.8518,-0.8518,-0.8518,-0.8414,-0.8419,-0.8427,-0.8441,-0.8456,-0.8469,-0.8481,-0.8493,-0.8511,-0.8518,-0.852,-0.852,-0.8523,-0.8523,-0.853,-0.8531,-0.8532,0,0]},{"header":{"parameterUnit":"m.s-1","parameterCategory":1,"la1":30.2992,"la2":30.254,"lo1":-89.0895,"lo2":-89.0443,"dy":0.0025,"dx":0.0025,"nx":19,"ny":19,"refTime":"2026-05-09T21:00:00:Z","depth":0,"parameterNumber":3,"parameterNumberName":"V-component_of_WINDS"},"data":[0,0,0,2.2008,2.2009,2.2069,2.2069,2.2148,2.2149,0,0,0,0,0,0,0,0,0,0,0,2.1992,2.1993,2.2008,2.2009,2.2069,2.2069,2.2148,2.2149,0,0,0,0,0,0,0,0,0,0,0,2.1992,2.1993,2.1993,2.2009,2.2069,2.2069,2.2148,2.2102,0,0,0,0,0,0,0,0,0,0,2.2043,2.2031,2.1993,2.1993,2.201,2.2069,2.2069,2.2099,2.2105,2.2122,0,2.214,0,2.2146,2.2155,2.2155,0,0,0,2.2007,2.2027,2.2041,2.1994,2.201,2.2069,2.2041,2.2102,2.2108,2.2129,2.2141,2.2144,2.2147,2.2155,2.2155,2.2268,2.2268,0,0,2.2004,2.2004,2.2037,2.2045,2.2037,2.204,2.2043,2.2106,2.2118,2.2141,2.2145,2.2148,2.2156,2.2156,2.2267,2.2268,0,0,0,2.1996,2.2002,2.2014,2.2042,2.2052,2.2041,2.2046,2.2115,2.2119,2.2146,2.2149,2.2156,2.2157,2.2267,2.2267,2.2299,0,0,0,2.1994,2.1997,2.2013,2.2014,2.2051,2.2085,2.2054,2.2115,2.2122,2.2149,2.2156,2.2158,2.2266,2.2267,2.2297,2.2314,0,0,0,2.1988,2.1996,2.2006,2.2013,2.2039,2.2084,2.2091,2.2116,2.2124,2.2155,2.2158,2.2265,2.2267,2.2295,2.2311,2.2345,0,0,0,2.1981,2.2032,2.2006,2.2064,2.2039,2.2103,2.2091,2.2138,2.2168,2.2157,2.2266,2.2267,2.2294,2.2309,2.2343,2.2375,2.2388,0,0,2.2045,2.2039,2.2074,2.2053,2.2122,2.2094,2.2167,2.2194,2.2196,2.2244,2.2246,2.2298,2.2311,2.2345,2.2459,2.2469,0,0,0,2.2094,2.2119,2.2137,2.2167,2.2189,2.221,2.2226,2.2236,2.2277,2.2221,2.2319,2.2326,2.2346,2.2361,2.237,2.2388,2.2274,2.2274,2.2274,2.2186,2.2187,2.2244,2.2253,2.2282,2.2298,2.2322,2.2338,2.2329,2.2353,2.2367,2.2436,2.2454,2.2461,2.2479,2.2383,2.2383,2.2383,2.2383,2.2281,2.2317,2.2306,2.2358,2.2359,2.2402,2.242,2.2413,2.2453,2.2425,2.2443,2.2413,2.2472,2.2488,2.2386,2.2385,2.2385,2.2385,2.2385,2.2342,2.236,2.2372,2.2416,2.2449,2.2455,2.2495,2.2494,2.2493,2.251,2.2526,2.2526,2.2526,2.2518,2.2518,2.2518,2.2518,2.2518,2.2519,2.2401,2.2414,2.2448,2.2477,2.2497,2.2522,2.254,2.2558,2.2579,2.2575,2.2575,2.2565,2.2477,2.2456,2.2522,2.2522,2.2521,2.2521,2.2521,2.25,2.2478,2.253,2.255,2.2585,2.2619,2.2616,2.2655,2.267,2.269,2.2677,2.2612,2.2605,2.2598,2.2581,2.2676,2.2676,2.2676,2.2676,2.2552,2.2549,2.2604,2.2635,2.2666,2.267,2.273,2.2744,2.2755,2.2765,2.2751,2.2727,2.272,2.2718,2.2708,2.2692,2.2813,2.2813,2.2813,2.2614,2.2614,2.2665,2.2677,2.2704,2.2727,2.2784,2.282,2.2828,2.2818,2.2773,2.2767,2.2728,2.2716,2.2706,2.2691,2.2661,0,0]}]]